,

(GMT )
Farnborough

Weather History for EGLF - May, 2013

Change the Weather History Date:

Monday, May 27, 2013

  Actual Average Record
Temperature  
Mean Temperature 50 °F -  
Max Temperature 62 °F - - ()
Min Temperature 37 °F - - ()
Degree Days  
Heating Degree Days 16    
Moisture  
Dew Point 38 °F    
Average Humidity 51    
Maximum Humidity 86    
Minimum Humidity 26    
Precipitation  
Precipitation 0.00 in - - ()
Sea Level Pressure  
Sea Level Pressure 29.77 in    
Wind  
Wind Speed 13 mph ()    
Max Wind Speed 23 mph    
Max Gust Speed 34 mph    
Visibility 7.7 miles    
Events      
T = Trace of Precipitation, MM = Missing Value Source: Averaged Metar Reports

Daily Weather History Graph

Daily Weather History Graph

Search for Another Location

Airport or City:

Trip Planner

Search our weather history database for the weather conditions in past years. The results will help you decide how hot, cold, wet, or windy it might be!

Date:

Astronomy

May. 27, 2013 Rise Set
Actual Time 4:57 AM BST 9:04 PM BST
Civil Twilight 4:13 AM BST 9:48 PM BST
Nautical Twilight 3:10 AM BST 10:51 PM BST
Astronomical Twilight 1:32 AM BST 12:27 AM BST
Moon 11:23 PM BST 7:21 AM BST
Length of Visible Light 17h 35m
Length of Day
16h 06m
Waning Gibbous, 92% of the Moon is Illuminated
May 27
Waning Gibbous
May 31
Last Quarter
Jun 8
New
Jun 16
First Quarter
Jun 23
Full

Hourly Weather History & Observations

Time (BST) Temp. Dew Point Humidity Pressure Visibility Wind Dir Wind Speed Gust Speed Precip Events Conditions
12:50 AM 47 °F 35 °F 53% 29.97 in 22 mi West 8.1 mph - -  
3:50 AM 38 °F 34 °F 81% 29.92 in 28 mi South 3.5 mph - -  
6:50 AM 47 °F 44 °F 86% 29.88 in 7 mi SW 9.2 mph - -   Mostly Cloudy
7:50 AM 48.2 °F 42.8 °F 82% 29.86 in 6.2 mi SW 12.7 mph - N/A   Partly Cloudy
8:20 AM 50.0 °F 42.8 °F 76% 29.86 in 6.2 mi SW 12.7 mph - N/A   Partly Cloudy
8:50 AM 51.8 °F 42.8 °F 71% 29.83 in 6.2 mi SW 11.5 mph - N/A   Partly Cloudy
9:20 AM 53.6 °F 41.0 °F 62% 29.83 in 6.2 mi SSW 16.1 mph - N/A   Partly Cloudy
9:50 AM 56 °F 43 °F 50% 29.83 in 17 mi SW 15.0 mph - -   Scattered Clouds
9:50 AM 55.4 °F 42.8 °F 63% 29.83 in 6.2 mi SSW 16.1 mph - N/A   Scattered Clouds
10:20 AM 57.2 °F 42.8 °F 59% 29.83 in 6.2 mi SSW 18.4 mph - N/A   Scattered Clouds
10:50 AM 57.2 °F 42.8 °F 59% 29.80 in 6.2 mi SW 18.4 mph - N/A   Scattered Clouds
11:20 AM 57.2 °F 41.0 °F 55% 29.80 in 6.2 mi SSW 16.1 mph - N/A   Scattered Clouds
11:50 AM 57.2 °F 41.0 °F 55% 29.80 in 6.2 mi SSW 17.3 mph 29.9 mph N/A   Scattered Clouds
12:50 PM 60 °F 40 °F 35% 29.78 in 19 mi SSW 20.7 mph - -   Scattered Clouds
12:50 PM 60.8 °F 41.0 °F 48% 29.77 in 6.2 mi SSW 21.9 mph - N/A   Scattered Clouds
1:20 PM 59.0 °F 39.2 °F 48% 29.77 in 6.2 mi SSW 20.7 mph - N/A   Scattered Clouds
1:50 PM 59.0 °F 37.4 °F 45% 29.74 in 6.2 mi SSW 21.9 mph - N/A   Scattered Clouds
2:20 PM 60.8 °F 39.2 °F 45% 29.74 in 6.2 mi SSW 21.9 mph 33.4 mph N/A   Partly Cloudy
2:50 PM 60.8 °F 37.4 °F 42% 29.74 in 6.2 mi South 18.4 mph 33.4 mph N/A   Partly Cloudy
3:20 PM 60.8 °F 37.4 °F 42% 29.74 in 6.2 mi South 23.0 mph 34.5 mph N/A   Partly Cloudy
3:50 PM 60 °F 34 °F 26% 29.72 in 22 mi SSW 23.0 mph - -  
3:50 PM 60.8 °F 39.2 °F 45% 29.71 in 6.2 mi South 23.0 mph - N/A   Partly Cloudy
4:20 PM 60.8 °F 32.0 °F 34% 29.71 in 6.2 mi South 18.4 mph - N/A   Partly Cloudy
4:50 PM 59.0 °F 33.8 °F 39% 29.71 in 6.2 mi SW 19.6 mph - N/A   Partly Cloudy
5:20 PM 59.0 °F 33.8 °F 39% 29.71 in 6.2 mi SW 17.3 mph - N/A   Unknown
5:50 PM 57.2 °F 32.0 °F 38% 29.68 in - SW 18.4 mph - N/A   Clear
6:20 PM 55.4 °F 32.0 °F 41% 29.68 in - SSW 13.8 mph - N/A   Clear
6:50 PM 57 °F 34 °F 30% 29.68 in 25 mi SW 11.5 mph - -  
6:50 PM 57.2 °F 33.8 °F 41% 29.68 in 6.2 mi SSW 11.5 mph - N/A   Partly Cloudy
7:20 PM 57.2 °F 35.6 °F 44% 29.68 in - SSW 9.2 mph - N/A   Clear
9:50 PM 52 °F 40 °F 53% 29.66 in 18 mi South 5.8 mph - -   Mostly Cloudy